Home   Weather   Zagreb   Past weeks

Flag for Croatia Past Weather in Zagreb, Croatia — Yesterday and Last 2 Weeks

Now
57 °F

Passing clouds.


Feels Like: 56 °F
Forecast: 44 / 68 °F
Wind: 7 mph from West

Location: Zagreb / Pleso

Current Time: Apr 24, 2017 at 9:26:03 pm

Latest Report: Apr 24, 2017 at 9:00 pm


Visibility: N/A

Pressure: 30.01 "Hg

Humidity: 63%

Dew Point: 45 °F

Location of ZagrebLocation

Past Weather in Zagreb — Graph

°F

Zagreb Temperature Yesterday

Maximum temperature yesterday: 55 °F (at 4:00 pm)
Minimum temperature yesterday: 39 °F (at 6:30 am)
Average temperature yesterday: 47 °F

High & Low Weather Summary for the Past Weeks

 TemperatureHumidityPressure
High77 °F (Apr 10, 4:00 pm)94% (Apr 15, 7:30 pm)30.45 "Hg (Apr 15, 7:30 pm)
Low30 °F (Apr 21, 5:30 am)21% (Apr 10, 5:00 pm)29.77 "Hg (Apr 13, 4:30 pm)
Average51 °F64%30.06 "Hg
* Reported Apr 9 8:00 pm — Apr 24 8:00 pm, Zagreb, Weather by CustomWeather, © 2017

Note: Actual official high and low records may vary slightly from our data, if they occured in-between our weather recording intervals... More about our weather records

Advertising

Zagreb Weather History for the Previous 24 Hours

Scroll right to see more
 ConditionsComfort  
Time TempWeatherWind HumidityBarometerVisibility
8:00 pm
Mon, Apr 24
59 °FPassing clouds.7 mph59%30.01 "HgN/A
7:30 pm61 °FSunny.9 mph55%30.01 "Hg10 mi
7:00 pm61 °FPassing clouds.12 mph52%30.01 "HgN/A
6:30 pm63 °FPassing clouds.12 mph49%30.01 "HgN/A
6:00 pm64 °FSunny.13 mph43%30.01 "Hg10 mi
5:30 pm64 °FPassing clouds.12 mph43%30.01 "HgN/A
5:00 pm64 °FPassing clouds.13 mph43%30.01 "HgN/A
4:30 pm66 °FPassing clouds.10 mph40%30.04 "HgN/A
4:00 pm66 °FPassing clouds.10 mph37%30.04 "HgN/A
3:30 pm64 °FPassing clouds.10 mph40%30.04 "HgN/A
3:00 pm64 °FSunny.6 mph40%30.07 "Hg10 mi
2:00 pm64 °FSunny.6 mph40%30.09 "Hg10 mi
1:30 pm63 °FSunny.3 mph39%30.09 "Hg10 mi
1:00 pm61 °FPassing clouds.2 mph42%30.12 "HgN/A
12:30 pm61 °FSunny.5 mph39%30.15 "Hg10 mi
12:00 pm59 °FSunny.3 mph39%30.15 "Hg10 mi
11:30 am59 °FSunny.5 mph45%30.15 "Hg10 mi
11:00 am57 °FPassing clouds.8 mph48%30.15 "HgN/A
10:30 am55 °FPassing clouds.5 mph51%30.18 "HgN/A
10:00 am55 °FSunny.3 mph51%30.18 "Hg10 mi
9:30 am54 °FPassing clouds.5 mph54%30.18 "HgN/A
9:00 am52 °FPassing clouds.5 mph62%30.18 "HgN/A
8:30 am50 °FSunny.5 mph67%30.18 "Hg10 mi
8:00 am48 °FPassing clouds.5 mph76%30.18 "HgN/A
7:30 am45 °FPassing clouds.3 mph81%30.18 "HgN/A
7:00 am43 °FSunny.2 mph87%30.18 "Hg10 mi
6:30 am43 °FPassing clouds.5 mph81%30.18 "HgN/A
6:00 am43 °FPassing clouds.3 mph81%30.18 "HgN/A
5:30 am43 °FClear.2 mph81%30.18 "Hg10 mi
5:00 am43 °FClear.3 mph81%30.18 "Hg10 mi
4:30 am45 °FClear.2 mph81%30.18 "Hg10 mi
4:00 am45 °FPassing clouds.5 mph81%30.18 "HgN/A
3:30 am43 °FPassing clouds.3 mph87%30.18 "HgN/A
3:00 am43 °FClear.5 mph81%30.18 "Hg10 mi
2:30 am45 °FClear.2 mph76%30.21 "Hg10 mi
2:00 am45 °FClear.2 mph81%30.21 "Hg10 mi
1:30 am45 °FClear.1 mph81%30.21 "Hg10 mi
1:00 am46 °FPassing clouds.5 mph76%30.21 "HgN/A
12:30 am46 °FPassing clouds.5 mph76%30.21 "HgN/A
12:00 am46 °FPassing clouds.5 mph76%30.21 "HgN/A
11:30 pm
Sun, Apr 23
46 °FPassing clouds.3 mph76%30.21 "HgN/A
11:00 pm45 °FPassing clouds.3 mph76%30.18 "HgN/A
10:30 pm46 °FClear.2 mph71%30.18 "Hg10 mi
10:00 pm46 °FClear.2 mph71%30.18 "Hg10 mi
9:00 pm50 °FPassing clouds.7 mph67%30.18 "HgN/A
Weather by CustomWeather, © 2017

See weather overviewHow to use our weather pages